This is the latest recevied weather packets stored in our database for station/object SV9TNF-56. If no packets are shown the sender has not sent any weather packets the latest 10 day(s).
| Time | Temp. | Humidity | Pressure | Rain* | Wind** | Luminosity | Snow |
|---|---|---|---|---|---|---|---|
| 1788260595 | 26.67° C | 56% | 1011.2 hPa | 0 mm | 6.26 m/s, 101° | - | - |
| 1788260295 | 26.67° C | 55% | 1011.5 hPa | 0 mm | 8.05 m/s, 205° | - | - |
| 1788259995 | 26.67° C | 57% | 1011.2 hPa | 0 mm | 8.05 m/s, 120° | - | - |
| 1788259695 | 26.67° C | 56% | 1011.2 hPa | 0 mm | 11.18 m/s, 180° | - | - |
| 1788259395 | 26.67° C | 55% | 1011.5 hPa | 0 mm | 8.05 m/s, 170° | - | - |
| 1788259094 | 26.67° C | 52% | 1011.2 hPa | 0 mm | 14.31 m/s, 168° | - | - |
| 1788258794 | 26.67° C | 54% | 1011.2 hPa | 0 mm | 6.26 m/s, 210° | - | - |
| 1788258494 | 26.67° C | 54% | 1011.5 hPa | 0 mm | 16.99 m/s, 169° | - | - |
| 1788258194 | 26.67° C | 57% | 1011.5 hPa | 0 mm | 11.18 m/s, 120° | - | - |
| 1788257894 | 26.11° C | 55% | 1011.5 hPa | 0 mm | 16.99 m/s, 154° | - | - |
| 1788257594 | 26.11° C | 60% | 1011.5 hPa | 0 mm | 21.46 m/s, 121° | - | - |
| 1788257294 | 26.11° C | 60% | 1011.5 hPa | 0 mm | 22.8 m/s, 85° | - | - |
| 1788256994 | 26.11° C | 62% | 1011.5 hPa | 0 mm | 17.88 m/s, 120° | - | - |
| 1788256694 | 26.11° C | 61% | 1011.5 hPa | 0 mm | 13.86 m/s, 150° | - | - |
| 1788256393 | 26.11° C | 62% | 1011.2 hPa | 0 mm | 8.05 m/s, 62° | - | - |
| 1788256093 | 25.56° C | 64% | 1010.8 hPa | 0 mm | 11.18 m/s, 145° | - | - |
| 1788255793 | 25.56° C | 64% | 1011.2 hPa | 0 mm | 12.52 m/s, 175° | - | - |
| 1788255493 | 25.56° C | 63% | 1011.2 hPa | 0 mm | 15.2 m/s, 143° | - | - |
| 1788255219 | 25.56° C | 62% | 1011.2 hPa | 0 mm | 13.41 m/s, 193° | - | - |
| 1788254893 | 25.56° C | 61% | 1011.2 hPa | 0 mm | 12.96 m/s, 210° | - | - |
| 1788254593 | 25.56° C | 60% | 1011.2 hPa | 0 mm | 12.07 m/s, 201° | - | - |
| 1788254293 | 25.56° C | 61% | 1011.2 hPa | 0 mm | 19.67 m/s, 246° | - | - |
| 1788253993 | 25.56° C | 63% | 1011.5 hPa | 0 mm | 25.48 m/s, 132° | - | - |
| 1788253693 | 25.56° C | 61% | 1011.2 hPa | 0 mm | 15.2 m/s, 179° | - | - |
| 1788253392 | 26.11° C | 60% | 1011.5 hPa | 0 mm | 5.36 m/s, 162° | - | - |
* Rain latest hour (hover to see other rain measurements)
** Current wind speed in m/s (hover to see current wind gust speed)